Hourly Weather Roundup
Issued by NWS Central Illinois

Home | Current Version | Previous Version | Text Only | Print | Product List | Glossary On
Versions: 1 2 3 4 5 6 7 8 9 10 11 12 13 14 15 16 17 18 19 20 21 22 23 24 25 26 27 28 29 30 31 32 33 34 35 36 37 38 39 40 41 42 43 44 45 46 47 48 49 50
000
NZUS43 KILX 211310
HWRILX

Area Weather Roundup
National Weather Service Lincoln IL
800 AM CDT SAT APR 21 2018

NOTE:  "FAIR" indicates few or no clouds below 12,000 feet, with
       no sigificant weather and/or obstructions to visibility.


CITY           SKY/WX    TMP DP  RH WIND       PRES   REMARKS
Bloomington    FAIR      44  31  60 E7        30.42R
Champaign      FAIR      45  30  55 E8        30.41F
Danville       FAIR      45  31  57 SE7       30.39F
Decatur        FAIR      45  32  60 E8        30.40F
Effingham      FAIR      49  30  47 NE7       30.41S
Flora          FAIR      47  32  56 NE6       30.39F
Galesburg      FAIR      49  28  43 E7        30.42R
Jacksonville   CLOUDY    48  30  50 E9        30.38R
Lacon          FAIR      43  26  50 CALM      30.43S
Lawrenceville  FAIR      48  29  47 NE10      30.41R
Litchfield     CLOUDY    49  29  46 E12       30.37S
$$


CITY           SKY/WX    TMP DP  RH WIND       PRES   REMARKS
Lincoln        FAIR      47  33  57 E7        30.41S
Macomb         PTSUNNY   44  31  60 E6        30.43R
Mattoon        FAIR      47  29  49 E7        30.40S
Mt Carmel AP   FAIR      47  31  52 E8        30.39S
Olney-Noble AP FAIR      46  29  50 E7        30.40S
Paris AP       FAIR      44  33  64 E6        30.43F
Peoria         FAIR      47  27  45 E7        30.43R
Pontiac        FAIR      42  28  56 E7        30.45R
Rantoul        FAIR      46  33  59 CALM      30.42R
Robinson       FAIR      47  33  59 E9        30.42S
Springfield    FAIR      50  30  46 E9        30.39R
Taylorville    FAIR      47  28  48 SE13      30.38F
$$

...REGIONAL REPORTS...


CITY           SKY/WX    TMP DP  RH WIND       PRES   REMARKS
Chicago O`Hare CLOUDY    45  20  36 E3        30.44R
Kankakee       PTSUNNY   43  26  51 E3        30.45R
La Salle       FAIR      45  31  58 CALM      30.45R
Moline         FAIR      46  28  49 E6        30.42R
Mount Sterling CLOUDY    47  29  50 E6        30.38R
Mount Vernon   FAIR      48  33  56 E9        30.37S
Pittsfield     CLOUDY    48  32  52 E5        30.38R
Quincy         CLOUDY    47  27  45 E8        30.36R
Rockford       CLOUDY    42  24  49 E3        30.46R
$$


CITY           SKY/WX    TMP DP  RH WIND       PRES   REMARKS
Burlington     CLOUDY    47  26  44 E9        30.40R
Cedar Rapids   FAIR      45  31  58 E8        30.39S
Des Moines     CLOUDY    47  29  49 E9        30.36S
Kirksville     CLOUDY    47  30  51 NE3       30.36R
Ottumwa        CLOUDY    45  28  51 E9        30.38R
St Louis       CLOUDY    50  30  46 E12       30.35R
$$


CITY           SKY/WX    TMP DP  RH WIND       PRES   REMARKS
Terre Haute    FAIR      48  32  53 E8        30.42S
Evansville     FAIR      49  32  52 NE8       30.38R
Indianapolis   PTSUNNY   47  24  40 SE9       30.44R
Lafayette      FAIR      43  34  70 E5        30.44S
Madison        CLOUDY    39  30  70 CALM      30.45R
Milwaukee      CLOUDY    40  26  57 CALM      30.47R
$$






USA.gov is the U.S. government's official web portal to all federal, state and local government web resources and services.